Flag for Estonia Weather past 2 weeks in Tallinn, Estonia

Now
45 °F

Clear.


Feels Like: 40 °F
Forecast: 40 / 42 °F
Wind: 8 mph from West

Location: Tallinn

Current Time: Apr 28, 2015 at 11:18:28 PM

Latest Report: Apr 28, 2015 at 10:50 PM


Visibility: 10 mi

Pressure: 29.80 "Hg

Humidity: 76%

Dew point: 37 °F

Location of TallinnLocation

Historic Weather in Tallinn — Graph

°F

Tallinn temperature yesterday

Maximum temperature yesterday: 61 °F (at 6:20 PM)
Minimum temperature yesterday: 39 °F (at 5:20 AM)
Average temperature yesterday: 50 °F

Past Weeks' High & Low Weather Summary

 TemperatureHumidityPressure
High61 °F (Apr 27, 6:20 PM)100% (Apr 15, 2:20 AM)30.12 "Hg (Apr 15, 2:20 AM)
Low28 °F (Apr 25, 5:50 AM)28% (Apr 25, 12:20 PM)29.21 "Hg (Apr 16, 4:50 AM)
Average43 °F72%29.71 "Hg
* Reported Apr 13 10:20 PM — Apr 28 10:20 PM, Tallinn, Weather by CustomWeather, © 2015

Note: Actual official high and low records may vary slightly from our data, if they occured in-between our weather recording intervals... More about our weather records

Advertising

Tallinn weather history for previous 24 hours

 ConditionsComfort  
Time TempWeatherWind HumidityBarometerVisibility
10:20 PM
Tue, Apr 28
45 °FClear.7 mph76%29.80 "Hg10 mi
9:50 PM45 °FSunny.5 mph76%29.80 "Hg10 mi
9:20 PM45 °FSunny.6 mph76%29.80 "Hg10 mi
8:50 PM45 °FSunny.8 mph71%29.80 "Hg10 mi
8:20 PM45 °FSunny.7 mph76%29.77 "Hg10 mi
7:50 PM46 °FSunny.7 mph71%29.77 "Hg10 mi
7:20 PM46 °FSunny.6 mph71%29.77 "Hg10 mi
6:50 PM46 °FSunny.8 mph71%29.77 "Hg10 mi
6:20 PM48 °FSunny.8 mph66%29.77 "Hg10 mi
5:50 PM48 °FSunny.8 mph71%29.77 "Hg10 mi
5:20 PM46 °FSunny.8 mph82%29.77 "Hg10 mi
4:50 PM48 °FSunny.7 mph76%29.77 "Hg10 mi
4:20 PM50 °FSunny.7 mph76%29.77 "Hg10 mi
3:50 PM50 °FSunny.9 mph76%29.77 "Hg10 mi
3:20 PM52 °FSunny.6 mph77%29.77 "Hg10 mi
2:50 PM52 °FSunny.6 mph77%29.77 "Hg10 mi
2:20 PM50 °FSunny.7 mph82%29.77 "Hg10 mi
1:50 PM48 °FPassing clouds.6 mph87%29.74 "HgN/A
1:20 PM46 °FPassing clouds.6 mph87%29.74 "HgN/A
12:50 PM46 °FPassing clouds.7 mph87%29.74 "HgN/A
12:20 PM48 °FScattered clouds.5 mph87%29.71 "HgN/A
11:50 AM46 °FPartly sunny.7 mph93%29.71 "HgN/A
11:20 AM46 °FLow clouds.7 mph93%29.71 "HgN/A
10:50 AM45 °FSleet. Fog.7 mph100%29.68 "Hg6 mi
10:20 AM45 °FFog.7 mph100%29.68 "Hg2 mi
9:50 AM45 °FFog.9 mph100%29.68 "Hg2 mi
9:20 AM46 °FFog.8 mph100%29.65 "Hg3 mi
8:50 AM45 °FFog.8 mph100%29.65 "Hg2 mi
8:20 AM45 °FFog.8 mph100%29.65 "Hg3 mi
7:50 AM45 °FFog.6 mph100%29.62 "Hg2 mi
7:20 AM45 °FFog.7 mph93%29.62 "Hg2 mi
6:20 AM43 °FDrizzle. Fog.8 mph100%29.62 "Hg2 mi
5:50 AM45 °FDrizzle. Fog.9 mph100%29.59 "Hg2 mi
5:20 AM46 °FDrizzle. Fog.10 mph100%29.59 "Hg1 mi
4:50 AM48 °FLight rain. Fog.8 mph100%29.56 "Hg2 mi
4:20 AM52 °FLight rain. Mostly cloudy.3 mph94%29.56 "Hg4 mi
3:50 AM52 °FLight rain. Fog.No wind100%29.56 "Hg3 mi
3:20 AM52 °FLight rain. Passing clouds.5 mph94%29.56 "Hg4 mi
2:50 AM52 °FLight rain. Fog.5 mph94%29.56 "Hg3 mi
2:20 AM50 °FLight rain. Fog.3 mph100%29.59 "Hg3 mi
1:50 AM50 °FRain showers. Passing clouds.2 mph94%29.59 "Hg2 mi
1:20 AM50 °FRain showers. Partly cloudy.5 mph100%29.59 "Hg2 mi
12:50 AM52 °FRain. Mostly cloudy.6 mph100%29.59 "Hg4 mi
12:20 AM52 °FLight rain. Mostly cloudy.7 mph100%29.59 "HgN/A
11:50 PM
Mon, Apr 27
54 °FOvercast.8 mph94%29.59 "HgN/A
11:20 PM54 °FPassing clouds.5 mph94%29.59 "HgN/A
Weather by CustomWeather, © 2015

See weather overviewHow to use our weather pages